This demonstration page uses our WeatherBlox Daily Observations layout. Learn more.

Left ArrowRight Arrow

Hourly Observations for July 14, 2018

Temp ( °F °C ) Dew Point ( °F °C ) Humidity (%) Winds ( mph kmh ) Pressure ( in mb ) Visibility ( mi km ) Precip ( " mm )
12:17 am 00:17 Clear 68 20 68 20 100 100 SSE 3 6 30.12 1020 10 16.0934 N/A
12:36 am 00:36 Clear 68 20 68 20 100 100 N N/A 30.12 1020 10 16.0934 N/A
12:56 am 00:56 Clear 66 19 66 19 100 100 N N/A 30.12 1020 10 16.0934 N/A
1:17 am 01:17 Clear 66 19 66 19 100 100 N N/A 30.12 1020 10 16.0934 N/A
1:36 am 01:36 Clear 66 19 66 19 100 100 N N/A 30.12 1020 10 16.0934 N/A
1:57 am 01:57 Clear 64 18 64 18 100 100 N N/A 30.09 1019 10 16.0934 N/A
2:16 am 02:16 Clear 64 18 64 18 100 100 SSE 3 6 30.09 1019 10 16.0934 N/A
2:37 am 02:37 Clear 66 19 66 19 100 100 N N/A 30.09 1019 10 16.0934 N/A
2:57 am 02:57 Clear 66 19 66 19 100 100 N N/A 30.09 1019 10 16.0934 N/A
3:16 am 03:16 Clear 64 18 64 18 100 100 N N/A 30.09 1019 10 16.0934 N/A
3:37 am 03:37 Clear 66 19 66 19 100 100 N N/A 30.09 1019 10 16.0934 N/A
3:56 am 03:56 Clear 64 18 64 18 100 100 N N/A 30.09 1019 10 16.0934 N/A
4:17 am 04:17 Clear 64 18 64 18 100 100 N N/A 30.06 1018 10 16.0934 N/A
4:36 am 04:36 Clear 64 18 64 18 100 100 N N/A 30.09 1019 10 16.0934 N/A
4:57 am 04:57 Clear 64 18 64 18 100 100 N N/A 30.09 1019 10 16.0934 N/A
5:16 am 05:16 Clear 63 17 63 17 100 100 N N/A 30.09 1019 10 16.0934 N/A
5:37 am 05:37 Clear 64 18 64 18 100 100 N N/A 30.09 1019 10 16.0934 N/A
5:57 am 05:57 Clear 64 18 64 18 100 100 N N/A 30.09 1019 10 16.0934 N/A
6:16 am 06:16 Clear 64 18 64 18 100 100 N N/A 30.09 1019 10 16.0934 N/A
6:37 am 06:37 Sunny 64 18 64 18 100 100 N N/A 30.09 1019 10 16.0934 N/A
6:56 am 06:56 Sunny 63 17 63 17 100 100 N N/A 30.09 1019 10 16.0934 N/A
7:17 am 07:17 Sunny 64 18 64 18 100 100 N N/A 30.12 1020 10 16.0934 N/A
7:37 am 07:37 Sunny 66 19 66 19 100 100 N 3 6 30.12 1020 10 16.0934 N/A
7:56 am 07:56 Sunny 68 20 68 20 100 100 N N/A 30.12 1020 10 16.0934 N/A
8:17 am 08:17 Sunny 70 21 68 20 94 94 N N/A 30.12 1020 10 16.0934 N/A
8:36 am 08:36 Sunny 72 22 70 21 94 94 N N/A 30.09 1019 10 16.0934 N/A
8:57 am 08:57 Sunny 73 23 70 21 89 89 N N/A 30.09 1019 10 16.0934 N/A
9:17 am 09:17 Sunny 75 24 70 21 83 83 N N/A 30.09 1019 10 16.0934 N/A
9:36 am 09:36 Sunny 77 25 70 21 79 79 N N/A 30.09 1019 10 16.0934 N/A
9:57 am 09:57 Sunny 79 26 72 22 79 79 N N/A 30.09 1019 10 16.0934 N/A
10:16 am 10:16 Sunny 79 26 72 22 79 79 N N/A 30.09 1019 10 16.0934 N/A
10:36 am 10:36 Sunny 81 27 72 22 74 74 N N/A 30.09 1019 10 16.0934 N/A
10:57 am 10:57 Sunny 82 28 72 22 70 70 N N/A 30.06 1018 10 16.0934 N/A
11:16 am 11:16 Sunny 82 28 72 22 70 70 N N/A 30.06 1018 10 16.0934 N/A
11:37 am 11:37 Sunny 82 28 72 22 70 70 N N/A 30.09 1019 10 16.0934 N/A
11:56 am 11:56 Sunny 84 29 72 22 66 66 N N/A 30.09 1019 10 16.0934 N/A
12:17 pm 12:17 Sunny 84 29 72 22 66 66 N N/A 30.09 1019 10 16.0934 N/A
12:36 pm 12:36 Sunny 86 30 72 22 62 62 N N/A 30.09 1019 10 16.0934 N/A
12:57 pm 12:57 Sunny 86 30 72 22 62 62 N 3 6 30.09 1019 10 16.0934 N/A
1:17 pm 13:17 Sunny 88 31 73 23 62 62 NW 6 9 30.09 1019 10 16.0934 N/A
1:36 pm 13:36 Sunny 88 31 72 22 59 59 NNW 5 7 30.09 1019 10 16.0934 N/A
1:57 pm 13:57 Sunny 88 31 70 21 55 55 W 3 6 30.09 1019 10 16.0934 N/A
2:16 pm 14:16 Sunny 90 32 70 21 52 52 N 5 7 30.06 1018 10 16.0934 N/A
2:37 pm 14:37 Sunny 90 32 70 21 52 52 NNW 7 11 30.03 1017 10 16.0934 N/A
2:56 pm 14:56 Sunny 90 32 73 23 59 59 NNE 10 17 30.03 1017 10 16.0934 N/A
3:16 pm 15:16 Sunny 90 32 73 23 59 59 NE 8 13 30.03 1017 10 16.0934 N/A
3:37 pm 15:37 Sunny 90 32 73 23 59 59 ENE 5 7 30 1016 10 16.0934 N/A
3:56 pm 15:56 Sunny 88 31 73 23 62 62 ENE 6 9 30.03 1017 10 16.0934 N/A
4:17 pm 16:17 Sunny 88 31 73 23 62 62 E 5 7 30.03 1017 10 16.0934 N/A
4:36 pm 16:36 Sunny 86 30 73 23 66 66 N N/A 30.03 1017 10 16.0934 N/A
4:56 pm 16:56 Sunny 88 31 73 23 62 62 SSE 3 6 30.03 1017 10 16.0934 N/A
5:17 pm 17:17 Sunny 88 31 73 23 62 62 ESE 3 6 30.03 1017 10 16.0934 N/A
5:36 pm 17:36 Sunny 86 30 75 24 70 70 E 6 9 30 1016 10 16.0934 N/A
5:57 pm 17:57 Sunny 84 29 75 24 74 74 ESE 7 11 30 1016 10 16.0934 N/A
6:16 pm 18:16 Sunny 84 29 75 24 74 74 SE 3 6 29.97 1015 10 16.0934 N/A
6:36 pm 18:36 Partly Cloudy 84 29 73 23 70 70 SSE 5 7 29.97 1015 10 16.0934 N/A
6:57 pm 18:57 Sunny 84 29 75 24 74 74 SE 5 7 29.97 1015 10 16.0934 N/A
7:16 pm 19:16 Sunny 84 29 73 23 70 70 SSE 5 7 29.97 1015 10 16.0934 N/A
7:37 pm 19:37 Sunny 82 28 73 23 74 74 S 3 6 30 1016 10 16.0934 N/A
7:56 pm 19:56 Sunny 82 28 73 23 74 74 S 3 6 30 1016 10 16.0934 N/A
8:16 pm 20:16 Sunny 81 27 73 23 79 79 SSW 3 6 30 1016 10 16.0934 N/A
8:36 pm 20:36 Sunny 81 27 73 23 79 79 SSW 3 6 30 1016 10 16.0934 N/A
8:56 pm 20:56 Sunny 81 27 73 23 79 79 N N/A 30.03 1017 10 16.0934 N/A
9:17 pm 21:17 Clear 75 24 73 23 94 94 N N/A 30.03 1017 10 16.0934 N/A
9:36 pm 21:36 Clear 77 25 73 23 89 89 SSE 3 6 30 1016 10 16.0934 N/A
9:56 pm 21:56 Clear 75 24 73 23 94 94 N N/A 30.03 1017 10 16.0934 N/A
10:17 pm 22:17 Clear 73 23 73 23 100 100 N N/A 30 1016 10 16.0934 N/A
10:36 pm 22:36 Clear 73 23 73 23 100 100 N N/A 30 1016 10 16.0934 N/A
10:57 pm 22:57 Clear 73 23 73 23 100 100 N N/A 30 1016 10 16.0934 N/A
11:17 pm 23:17 Clear 72 22 72 22 100 100 N N/A 30 1016 10 16.0934 N/A
11:36 pm 23:36 Clear 72 22 72 22 100 100 N N/A 30 1016 10 16.0934 N/A
11:57 pm 23:57 Clear 72 22 72 22 100 100 N N/A 30 1016 10 16.0934 N/A

Powered by AerisWeather